Temperature
18 18 18 18 18 17 17 17 17 17 17 16 16 16 15 15 14 14 13 13 12 12 12 13 12 13 13 13 14 14 14 15 14 15 15 16 16 16 16 16 16 16 16
19 18 18 18 18 18 17 17 17 17 17 16 16 16 15 14 14 13 12 12 12 12 12 12 12 12 12 12 13 13 14 14 14 14 15 16 17 16 16 16 16 16 16
20 19 19 18 18 18 18 17 17 17 17 16 15 15 15 14 14 13 13 12 11 11 11 11 11 11 12 13 12 12 13 14 14 14 15 16 17 16 16 16 16 15 15
20 20 20 19 19 18 18 17 17 17 17 16 15 15 15 14 14 13 12 12 11 11 11 11 11 11 11 11 12 12 12 12 14 14 14 14 14 14 16 16 16 15 15
21 20 20 20 19 19 18 18 17 17 17 16 16 15 14 14 14 13 12 11 11 11 10 10 10 10 11 10 11 11 11 12 13 14 14 14 14 14 14 15 15 15 15
21 21 20 20 19 19 18 18 17 17 17 16 15 15 14 13 13 12 12 12 12 11 11 10 10 10 10 10 10 10 11 11 11 12 13 13 14 14 15 15 15 15 15
22 21 21 20 19 19 18 18 17 17 16 16 15 14 14 13 12 12 12 11 12 12 11 10 10 10 9 9 10 10 10 10 10 11 12 12 13 13 14 14 15 15 15
23 22 21 21 20 19 18 18 17 17 16 16 15 14 14 13 13 12 12 12 11 11 10 10 10 9 9 9 9 10 10 10 10 10 10 11 12 12 13 13 14 14 15
23 22 22 21 20 19 18 18 17 16 16 15 14 14 13 13 12 12 11 11 11 11 10 10 10 9 9 9 9 9 9 9 9 10 10 10 11 11 12 12 13 13 14
23 22 22 21 20 19 18 17 17 16 15 15 14 14 13 12 12 12 11 11 11 10 10 10 10 9 9 9 9 9 9 9 9 9 9 9 10 11 11 12 12 13 13
23 22 21 20 19 19 18 17 17 16 15 14 14 13 13 12 12 11 11 11 10 10 10 10 10 9 9 9 9 9 9 9 9 9 9 9 9 10 10 11 11 12 12
23 22 21 20 19 19 18 17 16 16 15 14 14 13 13 12 11 11 11 10 10 10 10 10 9 9 9 9 9 8 9 9 9 9 9 9 9 9 9 10 10 11 11
22 21 20 20 19 19 18 17 17 16 15 14 14 13 12 12 11 11 11 10 10 10 10 9 9 9 9 9 9 8 8 8 8 8 8 8 8 8 9 9 10 10 11
22 21 20 20 19 18 18 17 17 16 15 14 14 13 12 12 11 11 10 10 10 10 9 9 9 9 9 9 8 8 8 8 8 8 8 8 8 8 8 8 9 9 10
21 21 20 20 19 18 18 17 17 16 15 14 14 13 12 12 11 11 10 10 10 9 9 9 9 9 8 8 8 8 8 8 8 8 8 8 8 8 8 8 9 9 9
22 21 21 20 19 19 18 17 17 16 15 14 14 13 12 12 11 10 10 10 9 9 9 9 9 8 8 8 8 8 7 7 8 8 8 8 8 8 8 8 8 8 8
22 22 21 20 20 19 18 17 17 16 15 14 14 13 12 12 11 10 10 10 9 9 9 9 8 8 8 8 8 8 8 7 7 7 8 8 9 8 8 8 8 8 8
23 22 21 21 20 19 18 18 17 16 15 14 14 13 12 12 11 10 10 10 9 9 9 8 8 8 8 8 8 8 8 7 7 7 7 8 8 8 8 7 8 7 7
23 22 22 21 20 19 18 17 16 16 15 14 14 13 12 12 11 11 10 10 9 9 9 8 8 8 8 8 8 8 8 7 8 8 8 7 7 7 7 7 7 7 7
23 22 21 21 20 19 18 18 16 16 15 14 13 13 12 12 12 11 11 10 9 9 9 8 8 8 8 8 8 8 7 7 8 8 8 7 7 7 7 6 6 6 7
22 22 21 20 20 19 19 18 17 16 15 14 14 13 13 12 12 11 11 10 9 9 8 8 8 8 9 9 8 8 8 7 7 7 8 8 7 7 7 6 6 6 6
22 21 20 20 19 19 19 18 17 16 15 15 14 13 13 12 11 11 11 10 9 8 8 8 8 8 8 8 8 8 8 7 7 7 7 7 7 6 6 6 6 6 6
21 20 20 19 19 19 18 18 17 16 15 15 14 13 13 12 12 11 10 9 8 8 8 8 8 9 9 8 8 8 8 8 7 7 7 7 7 6 6 6 6 6 6
19 19 19 18 18 18 17 17 16 16 15 15 14 13 13 12 11 10 9 9 9 8 8 8 8 8 9 8 8 8 7 7 7 7 7 7 7 6 6 6 6 6 6
18 18 17 17 16 16 17 16 16 15 15 14 14 13 12 12 11 10 10 9 9 8 8 8 8 8 8 8 8 8 7 7 7 7 6 6 6 6 6 6 6 6 6
16 16 16 16 16 16 16 16 15 15 15 14 13 12 12 11 11 10 10 10 9 9 8 8 8 8 8 8 8 8 8 8 7 7 6 6 7 7 7 6 6 6 6
Wind_Speed
7 7 7 7 7 7 7 6 5 5 4 2 2 2 2 3 4 4 6 7 8 8 7 7 5 6 6 6 7 6 7 7 6 8 9 10 12 12 11 11 11 12 14
8 9 9 9 9 8 8 7 7 6 5 3 2 1 3 3 4 4 4 6 7 8 7 6 8 6 6 7 7 7 8 8 6 7 8 9 8 7 9 8 9 10 9
10 11 11 10 10 9 9 8 8 7 6 4 4 3 3 4 4 5 4 6 7 7 7 7 7 7 8 7 7 8 9 9 7 5 6 6 6 5 4 5 6 5 5
11 11 11 11 11 10 10 9 9 8 7 6 6 6 6 7 6 6 5 6 6 6 6 7 7 7 7 6 8 6 7 8 8 6 5 6 6 6 6 5 4 4 5
12 12 12 11 10 10 10 9 9 9 8 7 6 6 7 6 6 6 5 7 5 5 6 6 6 6 7 6 7 7 8 8 8 8 6 6 6 7 8 8 6 6 5
12 12 11 10 9 9 9 9 9 8 8 8 7 7 6 6 7 7 7 7 6 5 4 5 5 6 6 6 7 7 8 7 8 8 8 8 8 7 7 8 8 7 6
12 11 11 10 10 9 8 7 7 7 7 7 7 6 6 6 7 8 7 7 7 6 4 5 5 6 6 7 7 7 8 8 8 9 9 9 9 8 9 9 9 9 8
11 11 10 9 8 7 7 6 6 6 6 7 6 6 6 7 6 6 7 8 7 7 6 6 7 7 7 7 7 8 8 7 8 10 9 9 10 9 9 10 10 10 9
10 9 8 8 7 6 6 6 6 6 6 6 6 6 7 7 7 7 8 8 7 7 7 8 8 8 8 8 8 8 8 8 9 10 10 10 10 10 10 10 10 11 12
9 8 7 7 6 6 6 5 6 6 6 6 7 6 7 8 8 9 9 9 9 9 9 10 10 10 9 9 9 10 9 9 9 8 9 9 10 9 10 10 11 11 12
9 8 8 7 7 6 6 6 6 6 6 7 7 7 8 9 9 9 10 10 10 10 10 10 11 11 11 10 10 11 11 11 11 10 11 11 11 10 10 10 11 12 12
9 9 9 8 7 7 7 6 6 6 6 7 7 8 9 9 10 10 10 10 10 11 11 11 12 12 12 11 11 12 12 12 12 12 12 12 10 11 11 11 12 12 11
10 10 9 8 7 7 6 6 6 6 6 7 8 9 9 10 10 11 11 10 11 11 12 12 12 13 12 12 12 12 13 13 13 13 13 13 12 12 12 12 12 11 12
11 11 9 8 7 7 6 6 6 6 6 7 8 9 10 10 11 11 11 11 11 11 12 12 12 13 13 13 13 13 13 13 13 13 14 14 14 13 13 12 13 12 13
12 11 10 9 8 7 7 6 6 6 6 7 9 9 10 10 11 11 11 11 11 12 12 12 13 13 12 12 12 11 12 13 13 13 14 14 14 12 11 12 12 12 12
12 12 11 10 9 8 8 7 7 6 6 8 9 9 9 10 10 11 11 11 12 12 12 12 13 13 12 6 4 10 14 14 14 14 14 13 14 15 17 18 17 16 14
12 12 12 11 9 9 8 7 7 6 7 8 9 9 9 10 10 11 11 12 12 12 12 12 12 13 12 8 9 11 13 15 15 15 14 13 13 12 14 17 21 21 21
12 12 12 11 10 9 8 7 7 6 7 8 8 9 9 10 10 11 11 12 11 12 12 12 12 13 12 9 11 11 14 15 16 15 15 15 15 14 13 14 15 16 17
12 12 12 11 10 10 9 8 7 7 8 8 8 9 9 10 10 11 11 11 11 12 12 12 12 13 13 11 10 11 12 13 15 15 15 15 15 12 9 14 16 16 15
12 12 12 11 11 11 10 9 9 8 8 8 7 8 8 9 11 11 11 11 11 12 12 12 12 13 14 11 9 10 11 13 13 13 13 14 15 12 8 14 15 17 16
12 12 12 12 12 11 11 10 10 9 8 7 7 8 8 9 10 11 10 11 11 12 12 13 13 13 14 13 12 12 11 12 12 12 11 10 9 12 13 14 15 15 14
11 12 11 12 11 12 12 12 11 9 7 6 7 8 9 9 9 10 11 11 11 12 12 12 13 12 11 11 10 11 13 13 13 12 12 9 4 9 12 13 14 13 12
9 9 11 11 11 12 12 12 10 8 7 7 8 8 9 9 9 10 11 11 10 10 10 11 11 11 10 8 11 13 13 14 12 12 12 12 10 10 13 17 17 14 13
7 7 8 10 10 10 11 10 8 8 8 9 9 8 9 9 10 9 10 10 10 10 10 11 11 11 10 10 8 7 7 11 12 12 12 14 16 15 15 12 12 13 14
5 4 5 7 7 7 8 9 9 9 9 9 9 9 9 9 9 10 10 11 10 10 11 12 12 12 12 8 6 9 10 9 8 8 10 11 11 11 11 11 11 12 13
7 5 3 4 5 6 7 9 9 10 11 10 10 9 8 7 9 10 10 12 14 13 15 17 16 14 15 16 14 13 13 13 10 8 11 12 11 11 11 10 10 11 12
Wind_Direction
161 165 179 182 180 179 180 181 184 173 192 205 250 295 329 342 348 357 12 357 354 352 341 330 327 308 300 302 289 283 278 275 289 284 277 263 247 240 238 236 237 235 233
180 185 192 196 198 195 198 200 205 205 214 206 247 290 319 317 331 338 351 346 346 338 333 343 316 318 308 284 285 278 287 288 279 287 292 284 259 228 236 232 230 239 237
191 192 198 203 206 209 211 214 215 215 220 217 234 237 252 273 296 324 327 339 331 327 329 324 322 321 302 302 301 288 275 280 279 275 288 293 294 315 245 232 228 228 238
198 200 203 209 215 219 219 220 221 222 220 222 246 269 290 303 318 313 321 321 312 316 316 316 317 315 310 314 294 295 291 275 274 261 257 275 300 293 291 265 237 234 246
203 208 214 219 224 227 227 224 225 227 225 229 235 249 274 294 302 307 306 305 310 308 312 312 313 311 304 317 314 308 292 281 275 277 270 267 263 261 272 283 289 277 261
206 212 220 224 230 231 231 229 225 226 223 227 233 247 272 284 295 298 305 303 307 307 315 307 307 301 309 309 301 300 284 286 288 282 276 272 273 274 277 280 280 281 278
207 212 219 222 224 227 228 229 223 224 221 224 231 240 256 267 268 281 294 298 304 309 318 309 298 300 301 296 296 289 292 285 282 274 272 272 273 278 279 280 283 286 284
206 212 216 219 222 221 217 215 213 216 216 223 230 238 249 263 274 276 290 294 296 306 314 294 286 285 286 288 289 285 277 276 279 275 277 277 269 271 270 273 280 281 278
207 211 211 214 208 202 199 203 205 215 224 234 234 243 251 264 277 278 268 277 285 288 289 288 284 281 278 279 280 277 281 277 272 272 262 261 270 265 266 268 268 273 278
201 201 199 191 184 183 184 194 206 222 236 241 248 254 257 258 262 270 281 285 285 282 282 282 282 280 277 271 268 272 263 264 265 268 278 277 272 272 268 266 265 264 267
196 188 180 175 176 182 189 199 211 227 241 253 256 265 267 268 266 265 270 275 279 281 277 278 279 279 277 274 268 268 272 264 264 264 261 260 269 272 272 265 261 260 260
190 180 174 177 187 198 204 211 226 241 252 260 263 266 269 270 269 270 273 275 276 276 278 278 278 278 278 276 272 270 270 265 262 260 261 260 258 256 262 267 266 264 266
188 183 182 191 201 208 216 227 240 255 264 265 267 270 272 271 269 274 277 277 276 277 280 279 278 279 279 276 272 270 268 267 265 262 260 258 258 258 259 259 262 262 258
191 192 194 201 209 213 218 232 248 261 268 271 273 275 277 278 277 276 277 276 277 279 280 280 280 280 279 276 274 271 270 269 267 264 260 258 254 253 255 256 256 260 264
198 200 206 208 210 214 219 230 245 255 265 272 277 281 282 282 280 279 277 277 277 278 280 281 281 279 278 273 275 279 278 275 271 266 261 257 254 257 258 262 260 256 253
208 209 213 216 216 217 222 228 239 250 258 269 278 286 288 287 286 285 282 280 278 280 281 280 281 281 279 292 287 277 280 278 273 270 266 260 247 239 235 248 260 267 264
217 217 219 220 218 216 216 223 234 246 257 268 277 285 288 290 290 290 289 285 284 283 282 282 281 280 279 267 249 253 271 273 271 269 267 264 258 241 244 233 232 244 249
226 224 224 220 214 209 208 215 226 238 256 268 278 286 289 291 293 291 289 289 287 287 286 284 282 281 279 260 244 247 264 267 265 263 261 262 265 261 257 258 249 243 238
230 229 228 224 210 207 204 208 226 240 256 268 278 287 292 293 293 291 291 291 289 287 286 284 282 281 280 262 238 243 273 266 265 264 262 261 262 258 244 257 259 257 252
231 228 225 219 205 201 198 208 227 240 254 269 279 286 287 288 290 291 292 291 288 285 286 286 284 282 280 270 239 235 267 269 270 268 264 253 249 262 240 253 255 254 251
232 227 222 216 208 196 193 209 226 238 251 262 270 276 280 282 283 286 286 285 285 286 288 288 284 280 275 270 246 232 256 270 274 274 273 271 215 224 232 242 254 256 261
238 228 220 218 207 195 195 210 224 233 239 248 261 270 275 279 283 283 282 282 282 283 283 284 285 281 272 261 253 227 235 260 270 272 274 278 229 231 237 241 248 247 251
259 243 230 224 212 202 202 214 222 223 228 238 251 262 270 272 275 276 278 277 274 277 283 285 287 288 287 270 230 230 234 236 251 267 281 289 279 263 253 242 237 235 237
280 261 243 234 223 212 211 216 216 213 223 238 250 257 263 268 269 271 272 275 278 280 281 284 285 288 288 286 284 269 248 230 242 259 262 247 245 247 257 255 231 230 233
322 291 260 248 236 215 212 216 214 211 221 235 246 254 260 266 274 271 269 274 277 281 285 289 289 288 288 301 336 304 291 288 290 294 277 272 264 253 245 241 238 232 228
4 350 315 279 255 227 222 221 216 211 220 234 242 250 257 263 269 275 276 244 240 252 248 251 262 278 277 285 287 277 266 263 263 267 265 266 264 262 258 252 243 235 231
Height
1545 1546 1548 1550 1551 1552 1553 1554 1555 1555 1556 1556 1557 1556 1555 1553 1551 1549 1545 1543 1541 1539 1537 1538 1536 1535 1536 1535 1535 1534 1534 1533 1531 1530 1529 1527 1526 1526 1525 1526 1526 1527 1526
1545 1546 1548 1550 1551 1552 1552 1553 1554 1555 1555 1555 1554 1553 1552 1551 1549 1547 1544 1541 1539 1537 1537 1534 1534 1533 1532 1531 1531 1530 1530 1530 1529 1528 1526 1524 1523 1520 1521 1521 1521 1521 1521
1543 1545 1547 1549 1550 1551 1552 1553 1553 1553 1553 1553 1552 1551 1550 1549 1548 1546 1543 1540 1537 1535 1533 1532 1531 1529 1529 1529 1527 1527 1527 1526 1526 1525 1525 1522 1519 1518 1518 1517 1517 1517 1517
1542 1544 1545 1547 1548 1549 1550 1550 1550 1550 1550 1550 1550 1550 1549 1547 1545 1543 1541 1538 1535 1533 1531 1529 1527 1526 1526 1525 1524 1524 1523 1523 1523 1522 1522 1521 1520 1519 1516 1516 1515 1514 1514
1539 1541 1543 1545 1546 1547 1548 1548 1548 1548 1547 1547 1546 1546 1545 1544 1543 1540 1538 1535 1533 1530 1528 1526 1525 1523 1523 1521 1520 1519 1519 1520 1520 1520 1519 1519 1518 1517 1516 1513 1513 1512 1511
1536 1539 1540 1542 1543 1544 1544 1545 1544 1544 1544 1543 1543 1542 1541 1540 1538 1537 1535 1534 1532 1529 1527 1524 1522 1521 1520 1518 1517 1516 1516 1516 1515 1515 1516 1516 1515 1514 1513 1511 1510 1509 1508
1533 1535 1537 1538 1539 1540 1541 1542 1541 1541 1541 1540 1539 1538 1537 1536 1534 1534 1533 1531 1529 1528 1525 1522 1520 1518 1517 1515 1514 1513 1512 1512 1511 1511 1512 1512 1512 1511 1510 1509 1507 1506 1505
1529 1531 1533 1535 1536 1537 1538 1538 1538 1538 1537 1537 1536 1534 1533 1533 1533 1531 1529 1528 1526 1524 1521 1519 1517 1515 1514 1513 1511 1510 1510 1509 1507 1507 1507 1507 1507 1507 1507 1507 1505 1503 1502
1526 1528 1530 1532 1533 1534 1535 1535 1535 1535 1534 1534 1532 1531 1530 1529 1528 1527 1525 1524 1522 1520 1518 1516 1514 1512 1511 1509 1507 1507 1506 1505 1504 1504 1503 1502 1503 1503 1502 1502 1502 1502 1499
1523 1525 1527 1529 1530 1531 1531 1532 1532 1531 1531 1530 1529 1529 1527 1525 1524 1523 1522 1520 1518 1516 1514 1512 1510 1509 1507 1505 1504 1503 1502 1501 1499 1499 1498 1497 1498 1498 1498 1497 1497 1497 1496
1519 1522 1524 1526 1527 1528 1528 1528 1528 1528 1527 1526 1525 1524 1523 1522 1520 1519 1517 1516 1514 1512 1510 1508 1506 1504 1503 1501 1500 1498 1497 1496 1495 1494 1494 1493 1492 1493 1493 1493 1492 1492 1492
1516 1519 1521 1523 1524 1525 1526 1526 1525 1525 1524 1523 1521 1520 1519 1517 1516 1515 1513 1511 1509 1507 1506 1504 1501 1500 1498 1497 1495 1493 1492 1491 1490 1489 1489 1488 1488 1487 1487 1487 1487 1487 1486
1514 1516 1518 1520 1521 1522 1522 1523 1522 1522 1521 1520 1518 1516 1515 1514 1512 1510 1509 1506 1504 1502 1500 1498 1496 1494 1493 1491 1489 1488 1486 1485 1484 1484 1483 1483 1482 1482 1482 1481 1481 1481 1481
1510 1513 1514 1516 1517 1518 1518 1518 1519 1518 1517 1516 1514 1512 1511 1509 1507 1505 1503 1501 1499 1497 1495 1493 1491 1489 1487 1485 1484 1482 1481 1479 1478 1478 1477 1477 1476 1476 1476 1476 1475 1476 1476
1507 1509 1511 1512 1513 1514 1514 1514 1514 1514 1513 1511 1510 1509 1507 1504 1502 1500 1498 1496 1493 1491 1489 1487 1484 1482 1481 1479 1478 1477 1475 1474 1472 1471 1471 1470 1470 1469 1470 1471 1471 1471 1471
1502 1505 1506 1508 1509 1510 1510 1511 1510 1510 1509 1507 1506 1504 1502 1500 1497 1495 1493 1490 1488 1485 1483 1481 1478 1476 1475 1474 1471 1470 1468 1467 1466 1465 1464 1464 1463 1462 1462 1462 1463 1464 1465
1498 1500 1502 1503 1504 1505 1506 1506 1506 1505 1504 1503 1501 1500 1497 1495 1492 1490 1487 1485 1482 1480 1477 1475 1472 1470 1468 1467 1465 1463 1462 1460 1459 1458 1458 1458 1458 1457 1456 1455 1455 1456 1456
1494 1495 1497 1499 1500 1500 1501 1501 1501 1501 1500 1499 1497 1495 1493 1490 1487 1484 1482 1479 1476 1474 1471 1468 1466 1464 1462 1460 1459 1457 1455 1453 1452 1451 1451 1450 1450 1450 1450 1450 1449 1449 1449
1489 1491 1492 1494 1495 1495 1496 1496 1496 1496 1495 1494 1493 1491 1488 1485 1482 1479 1476 1473 1470 1467 1465 1462 1460 1458 1456 1455 1453 1451 1449 1448 1446 1445 1444 1443 1443 1442 1442 1442 1442 1442 1443
1484 1485 1487 1488 1488 1489 1490 1491 1491 1491 1491 1490 1488 1485 1482 1480 1477 1474 1470 1468 1464 1461 1459 1456 1454 1452 1450 1449 1447 1445 1443 1442 1440 1439 1437 1436 1435 1435 1434 1434 1434 1434 1435
1479 1480 1481 1481 1482 1483 1484 1484 1485 1485 1485 1484 1482 1480 1477 1474 1471 1468 1465 1462 1459 1456 1454 1451 1448 1446 1444 1443 1441 1439 1438 1436 1435 1433 1432 1431 1429 1427 1427 1426 1426 1426 1427
1474 1474 1474 1475 1476 1476 1477 1478 1479 1479 1479 1478 1476 1474 1472 1469 1467 1464 1460 1457 1454 1451 1448 1445 1443 1441 1439 1437 1435 1433 1431 1430 1428 1426 1425 1424 1422 1420 1419 1418 1418 1418 1419
1469 1469 1469 1469 1469 1470 1471 1472 1473 1474 1473 1472 1471 1469 1467 1464 1461 1458 1455 1453 1450 1447 1444 1441 1438 1436 1434 1432 1429 1427 1425 1423 1421 1420 1418 1417 1415 1413 1412 1410 1410 1410 1411
1465 1464 1464 1464 1464 1464 1465 1467 1468 1468 1468 1467 1465 1463 1461 1459 1456 1453 1451 1449 1446 1443 1440 1437 1434 1431 1429 1427 1425 1423 1420 1417 1415 1413 1411 1409 1407 1405 1404 1403 1402 1401 1402
1460 1459 1458 1458 1459 1459 1460 1462 1462 1462 1461 1460 1459 1458 1456 1454 1451 1448 1445 1443 1440 1438 1434 1431 1429 1426 1423 1421 1419 1417 1414 1413 1410 1407 1405 1403 1401 1399 1397 1396 1395 1394 1394
1458 1457 1455 1455 1456 1455 1455 1456 1456 1455 1455 1454 1453 1452 1450 1448 1446 1443 1440 1436 1433 1430 1427 1424 1422 1418 1416 1414 1412 1410 1407 1405 1403 1400 1398 1396 1394 1392 1390 1389 1387 1386 1386